Date String (YYYY-MM-DD hh:mm:ss) UTC,Instrument flags,absolute air pressure of the measurement (hPa),sample flow rate (lpm),inlet stack bypass flow (lpm),air temperature of the measurement (°C),ambient temperature measured by the external sensor (°C),aerosol sample conditioner tube jacket temperature (°C),OPC LED temperature (°C),internal box temperature (°C),relative humidity of the measurement (%),span deviation,mass concentration of particles derived from Lorenz-Mie calculation of OPC scattering (μg/m³),mass concentration of particles derived from Lorenz-Mie calculation of OPC scattering (μg/m³),mass concentration of particles derived from Lorenz-Mie calculation of OPC scattering (μg/m³)
DateTimeUTC,F1_M11,P_M11,Q1_M11,Q2_M11,T1_M11,T2_M11,T3_M11,T4_M11,T5_M11,U1_M11,ZSPAN_M11,X0_M11,X2_M11,X1_M11
2023-09-23 13:00:00,SystemResetWarning,0827.5,4.99,000.00,027.2,025.8,000.0,035.6,028.7,9.5,0003.4,0008.55,0004.26,0003.91
2023-09-23 13:01:00,SystemResetWarning,0827.4,4.99,000.00,027.2,025.8,000.0,035.6,028.7,9.6,0003.5,0008.46,0004.22,0003.89
2023-09-23 13:02:00,SystemResetWarning,0827.3,5.00,000.00,027.2,025.8,000.0,035.6,028.7,9.8,0003.4,0008.41,0004.21,0003.88
2023-09-23 13:03:00,SystemResetWarning,0827.4,4.99,000.00,027.2,025.8,000.0,035.6,028.7,9.3,0003.2,0008.22,0004.19,0003.87
2023-09-23 13:04:00,SystemResetWarning,0827.4,5.01,000.00,027.2,025.7,000.0,035.6,028.7,9.6,0002.8,0008.31,0004.21,0003.87
2023-09-23 13:05:00,SystemResetWarning,0827.7,5.01,000.00,027.1,025.6,000.0,035.6,028.7,10.0,0002.3,0008.09,0004.21,0003.86
2023-09-23 13:06:00,SystemResetWarning,0827.4,5.00,000.00,027.1,025.6,000.0,035.6,028.6,9.7,0001.8,0007.32,0004.20,0003.86
2023-09-23 13:07:00,SystemResetWarning,0827.6,5.00,000.00,027.1,025.7,000.0,035.6,028.6,9.7,0001.6,0007.33,0004.21,0003.86
2023-09-23 13:08:00,SystemResetWarning,0827.5,5.00,000.00,027.2,025.7,000.0,035.6,028.7,9.6,0001.0,0007.25,0004.19,0003.86
2023-09-23 13:09:00,SystemResetWarning,0827.5,5.00,000.00,027.2,025.7,000.0,035.6,028.7,9.8,0001.0,0007.33,0004.21,0003.86
2023-09-23 13:10:00,SystemResetWarning,0827.6,4.99,000.00,027.2,025.7,000.0,035.6,028.7,9.9,0001.2,0007.28,0004.24,0003.86
2023-09-23 13:11:00,SystemResetWarning,0827.6,5.00,000.00,027.2,025.7,000.0,035.6,028.7,10.0,0001.3,0007.21,0004.25,0003.87
2023-09-23 13:12:00,SystemResetWarning,0827.7,4.99,000.00,027.2,025.8,000.0,035.6,028.8,9.8,0001.4,0007.37,0004.28,0003.87
2023-09-23 13:13:00,SystemResetWarning,0827.5,4.99,000.00,027.2,025.8,000.0,035.6,028.8,9.4,0001.2,0007.32,0004.27,0003.87
2023-09-23 13:14:00,SystemResetWarning,0827.7,5.01,000.00,027.2,025.8,000.0,035.6,028.7,9.2,0000.8,0006.94,0004.25,0003.87
2023-09-23 13:15:00,SystemResetWarning,0827.5,5.01,000.00,027.2,025.8,000.0,035.6,028.7,9.3,0000.6,0007.50,0004.22,0003.86
2023-09-23 13:16:00,SystemResetWarning,0827.5,5.00,000.00,027.2,025.8,000.0,035.6,028.7,9.1,0000.7,0007.64,0004.21,0003.86
2023-09-23 13:17:00,SystemResetWarning,0827.4,4.99,000.00,027.2,025.8,000.0,035.6,028.7,9.0,0000.4,0008.11,0004.22,0003.85
2023-09-23 13:18:00,SystemResetWarning,0827.4,5.00,000.00,027.2,025.8,000.0,035.6,028.7,9.0,0000.2,0008.12,0004.21,0003.84
2023-09-23 13:19:00,SystemResetWarning,0827.5,5.00,000.00,027.2,025.8,000.0,035.6,028.7,8.3,0000.5,0008.19,0004.22,0003.84
2023-09-23 13:20:00,SystemResetWarning,0827.7,4.99,000.00,027.2,025.8,000.0,035.6,028.7,8.4,0000.3,0008.21,0004.20,0003.83
2023-09-23 13:21:00,SystemResetWarning,0827.5,5.01,000.00,027.2,025.8,000.0,035.6,028.7,8.7,0000.2,0008.07,0004.14,0003.82
2023-09-23 13:22:00,SystemResetWarning,0827.4,5.01,000.00,027.2,025.8,000.0,035.6,028.7,8.8,0000.1,0008.18,0004.16,0003.81
2023-09-23 13:23:00,SystemResetWarning,0827.8,5.00,000.00,027.2,025.8,000.0,035.6,028.7,8.5,-000.1,0008.16,0004.14,0003.80
2023-09-23 13:24:00,SystemResetWarning,0827.7,5.00,000.00,027.2,025.8,000.0,035.6,028.8,8.0,0000.2,0008.16,0004.14,0003.79
2023-09-23 13:25:00,SystemResetWarning,0827.4,5.00,000.00,027.2,025.8,000.0,035.6,028.7,7.8,0000.7,0008.22,0004.16,0003.79
2023-09-23 13:26:00,SystemResetWarning,0827.4,5.00,000.00,027.2,025.8,000.0,035.6,028.8,8.2,0000.9,0007.86,0004.17,0003.79
2023-09-23 13:27:00,SystemResetWarning,0827.6,5.00,000.00,027.2,025.8,000.0,035.6,028.8,8.4,0000.7,0007.88,0004.17,0003.79
2023-09-23 13:28:00,SystemResetWarning,0827.7,5.00,000.00,027.2,025.8,000.0,035.6,028.8,8.6,0001.0,0007.42,0004.16,0003.78
2023-09-23 13:29:00,SystemResetWarning,0827.7,5.00,000.00,027.3,025.8,000.0,035.6,028.8,8.7,0001.0,0007.51,0004.15,0003.77
2023-09-23 13:30:00,SystemResetWarning,0827.7,5.00,000.00,027.3,025.8,000.0,035.6,028.8,8.6,0001.1,0007.48,0004.14,0003.76
2023-09-23 13:31:00,SystemResetWarning,0827.7,5.00,000.00,027.3,025.9,000.0,035.6,028.9,8.5,0001.4,0007.54,0004.12,0003.75
2023-09-23 13:32:00,SystemResetWarning,0827.7,5.00,000.00,027.3,025.9,000.0,035.6,028.8,8.6,0001.2,0008.20,0004.12,0003.74
2023-09-23 13:33:00,SystemResetWarning,0827.7,5.00,000.00,027.3,025.9,000.0,035.6,028.9,8.8,0001.5,0008.21,0004.10,0003.73
2023-09-23 13:34:00,SystemResetWarning,0827.6,5.00,000.00,027.3,025.9,000.0,035.6,028.8,8.9,0001.4,0008.17,0004.09,0003.72
2023-09-23 13:35:00,SystemResetWarning,0827.7,5.00,000.00,027.3,025.9,000.0,035.6,028.8,8.9,0001.5,0008.14,0004.09,0003.72
2023-09-23 13:36:00,SystemResetWarning,0827.8,5.00,000.00,027.3,025.9,000.0,035.7,028.8,8.9,0002.3,0008.33,0004.10,0003.72
2023-09-23 13:37:00,SystemResetWarning,0827.8,5.01,000.00,027.3,025.9,000.0,035.7,028.8,9.1,0002.3,0008.60,0004.10,0003.73
2023-09-23 13:38:00,SystemResetWarning,0827.8,5.00,000.00,027.3,025.8,000.0,035.7,028.8,9.5,0002.4,0008.49,0004.11,0003.74
2023-09-23 13:39:00,SystemResetWarning,0827.8,5.01,000.00,027.3,025.8,000.0,035.7,028.8,9.4,0002.8,0008.45,0004.13,0003.74
2023-09-23 13:40:00,SystemResetWarning,0827.8,5.01,000.00,027.2,025.8,000.0,035.6,028.8,9.2,0002.9,0008.34,0004.14,0003.75
2023-09-23 13:41:00,SystemResetWarning,0827.8,5.00,000.00,027.2,025.8,000.0,035.7,028.7,9.0,0003.0,0008.39,0004.14,0003.76
2023-09-23 13:42:00,SystemResetWarning,0827.9,4.99,000.00,027.2,025.8,000.0,035.7,028.7,8.7,0002.5,0008.39,0004.14,0003.77
2023-09-23 13:43:00,SystemResetWarning,0828.0,5.00,000.00,027.2,025.8,000.0,035.7,028.7,8.7,0002.0,0008.14,0004.18,0003.79
2023-09-23 13:44:00,SystemResetWarning,0828.0,5.00,000.00,027.2,025.8,000.0,035.7,028.7,8.3,0001.7,0008.23,0004.20,0003.81
2023-09-23 13:45:00,SystemResetWarning,0827.8,5.00,000.00,027.2,025.8,000.0,035.7,028.7,8.6,0002.1,0008.75,0004.22,0003.81
2023-09-23 13:46:00,SystemResetWarning,0827.9,5.00,000.00,027.2,025.8,000.0,035.7,028.7,8.4,0002.1,0008.86,0004.22,0003.81
2023-09-23 13:47:00,SystemResetWarning,0827.9,5.00,000.00,027.2,025.8,000.0,035.7,028.7,8.0,0001.5,0008.82,0004.23,0003.81
2023-09-23 13:48:00,SystemResetWarning,0828.0,5.00,000.00,027.2,025.8,000.0,035.7,028.7,7.9,0001.8,0008.43,0004.23,0003.81
2023-09-23 13:49:00,SystemResetWarning,0827.7,5.00,000.00,027.2,025.8,000.0,035.7,028.7,7.7,0002.0,0008.60,0004.22,0003.80
2023-09-23 13:50:00,SystemResetWarning,0827.8,5.00,000.00,027.2,025.8,000.0,035.7,028.7,7.9,0001.3,0008.56,0004.19,0003.78
2023-09-23 13:51:00,SystemResetWarning,0828.0,5.00,000.00,027.2,025.8,000.0,035.7,028.7,7.7,0001.1,0008.85,0004.16,0003.77
2023-09-23 13:52:00,SystemResetWarning,0828.1,5.00,000.00,027.2,025.8,000.0,035.7,028.8,7.4,0000.8,0008.82,0004.15,0003.76
2023-09-23 13:53:00,SystemResetWarning,0828.3,5.00,000.00,027.2,025.8,000.0,035.7,028.8,7.6,0000.8,0009.24,0004.16,0003.74
2023-09-23 13:54:00,SystemResetWarning,0828.3,5.00,000.00,027.3,025.8,000.0,035.6,028.8,8.0,0001.3,0009.37,0004.13,0003.72
2023-09-23 13:55:00,SystemResetWarning,0828.4,5.00,000.00,027.3,025.9,000.0,035.6,028.9,8.3,0000.5,0009.38,0004.11,0003.68
2023-09-23 13:56:00,SystemResetWarning,0828.4,5.01,000.00,027.3,025.9,000.0,035.6,028.9,8.1,0000.9,0008.72,0004.08,0003.65
2023-09-23 13:57:00,SystemResetWarning,0828.4,5.00,000.00,027.3,025.9,000.0,035.6,028.9,8.3,0000.0,0008.44,0004.06,0003.64
2023-09-23 13:58:00,SystemResetWarning,0828.5,4.99,000.00,027.3,025.9,000.0,035.6,028.9,8.4,0000.0,0008.42,0004.03,0003.62
2023-09-23 13:59:00,SystemResetWarning,0828.6,5.00,000.00,027.3,026.0,000.0,035.7,028.9,7.9,0000.4,0008.37,0003.96,0003.58
